GFSMW_sfc_thetae_057.txt.gz
Theta_e
325 327 329 331 333 340 345 347 346 358 350 342 338 339 342 346 347 348 353 352 352 351 355 348 350 350 347 347 349 341 339 335 342 342 339 335 340 342 342 337 336 337 340
323 326 328 331 335 338 344 346 351 354 354 345 347 345 347 345 348 348 353 352 352 352 351 353 351 350 345 348 344 345 337 341 346 334 335 326 332 335 338 336 335 340 338
321 324 325 330 332 336 340 342 348 351 354 354 349 350 351 352 347 349 350 351 352 352 351 350 352 350 350 343 345 345 344 337 342 340 335 325 322 332 340 335 337 334 336
321 323 323 327 331 330 333 341 345 350 351 358 348 356 346 344 345 348 350 351 352 350 350 351 351 353 347 352 346 345 345 343 338 339 335 337 334 327 325 329 334 336 337
320 320 321 324 325 329 332 337 342 347 352 356 353 348 352 345 346 347 356 357 353 351 350 351 353 351 346 350 349 347 345 342 339 334 335 335 335 336 330 325 329 336 335
319 320 321 322 322 323 326 335 340 345 348 353 351 358 357 356 347 350 348 348 347 348 351 350 352 353 350 347 344 347 343 341 342 340 333 334 329 330 331 329 331 331 337
316 317 318 319 321 323 325 328 336 341 347 349 350 350 358 362 361 354 349 349 347 347 349 352 352 347 348 346 346 345 342 340 337 337 334 337 335 339 337 333 331 328 332
315 317 319 322 322 324 326 326 333 340 348 349 349 352 356 350 352 355 350 347 346 347 353 350 347 345 345 344 345 342 338 342 338 338 340 336 334 342 340 334 330 326 328
319 322 325 328 330 330 328 331 334 342 348 350 351 354 354 358 352 358 357 346 352 346 347 346 345 344 343 342 343 337 338 339 339 337 337 334 333 334 335 334 340 336 324
316 321 328 331 334 331 330 336 340 346 348 350 351 351 351 350 350 350 351 350 350 345 343 343 344 342 340 339 340 338 338 338 337 334 335 335 336 337 336 336 339 338 327
314 322 330 332 334 332 335 341 345 346 347 348 349 349 348 348 347 346 344 345 345 343 340 340 340 339 337 338 338 337 337 333 336 336 334 334 336 338 339 337 333 339 337
314 319 331 330 335 335 339 343 345 345 347 347 347 346 345 344 344 343 343 344 342 341 339 339 337 335 334 336 337 335 335 333 333 333 333 332 335 335 337 340 337 337 336
313 316 330 331 336 337 340 342 343 344 345 344 343 343 343 343 342 342 342 340 339 338 337 336 334 333 333 336 337 335 334 334 334 334 330 330 332 330 337 335 334 340 338
311 315 321 332 336 337 339 340 342 342 342 341 341 341 341 341 340 340 339 338 338 336 335 334 333 332 333 335 334 335 334 334 332 331 329 327 325 329 331 329 335 337 335
310 313 316 332 335 334 338 339 339 340 340 338 338 338 339 338 337 337 338 338 337 336 334 333 332 333 332 330 336 335 335 334 331 329 328 328 326 322 322 332 336 335 335
309 312 316 330 332 332 335 336 337 338 338 337 335 334 335 336 337 338 338 337 335 335 333 334 335 336 328 306 313 325 336 334 331 327 326 327 321 320 314 316 315 329 332
309 313 316 322 335 333 337 335 337 338 336 333 331 333 334 335 335 336 336 335 337 339 336 336 335 335 334 306 308 310 336 334 333 327 325 324 326 323 329 316 314 314 314
310 314 320 322 337 335 335 337 337 335 331 331 331 332 333 334 335 334 334 336 338 337 338 336 335 336 328 304 303 307 336 335 334 327 326 324 329 329 328 330 329 330 329
312 318 323 327 338 335 335 336 335 332 329 329 331 332 333 333 333 333 335 340 337 338 336 335 335 335 331 304 304 316 334 332 329 327 326 326 328 307 309 329 327 327 327
319 320 324 330 338 336 337 336 333 330 328 329 331 333 333 334 333 335 336 337 337 337 336 333 335 322 332 303 302 315 333 328 325 324 320 308 321 302 304 329 330 325 324
318 321 324 328 336 336 336 334 332 328 330 331 332 333 334 335 337 338 338 337 335 335 336 333 334 333 329 324 302 306 332 328 324 324 324 320 302 300 302 307 333 325 326
319 322 325 334 336 336 335 334 330 329 331 331 331 333 334 333 334 337 338 335 335 332 333 331 331 331 332 311 305 305 308 314 325 326 326 318 298 298 301 310 301 303 315
321 325 327 334 334 337 336 332 330 330 331 331 331 334 334 334 335 334 334 331 333 331 330 330 325 327 330 328 302 302 304 304 327 325 302 296 295 296 302 299 302 306 326
322 326 330 332 332 335 336 334 330 330 330 330 331 334 332 331 334 333 336 334 332 329 327 327 325 326 328 329 328 324 319 307 315 309 315 304 303 303 307 312 314 325 324
325 329 332 332 333 335 335 333 329 331 331 331 330 331 330 334 334 334 332 334 334 326 333 330 326 326 325 323 317 321 324 327 316 317 319 316 314 312 315 319 323 323 323
323 330 332 335 334 335 333 330 330 331 332 330 329 329 329 330 331 331 329 297 299 298 299 302 316 322 305 298 300 301 298 300 300 320 318 316 315 315 317 317 319 321 319

GFSMW_sfc_thetae_060.txt.gz
Theta_e
326 327 330 332 335 344 347 350 350 355 354 354 347 343 342 346 351 352 354 356 353 351 352 348 350 350 345 344 346 344 341 338 337 337 334 335 337 337 338 338 337 336 337
322 327 330 336 340 345 346 349 349 351 353 352 350 349 351 347 349 352 353 356 353 353 351 349 348 348 346 347 346 342 336 335 339 333 329 324 328 333 334 335 334 333 335
321 323 327 333 339 339 344 343 347 349 353 350 349 349 353 355 353 352 353 354 353 353 352 349 350 348 346 344 344 343 337 335 338 336 330 321 319 325 332 333 333 333 334
320 324 327 332 339 337 338 340 344 345 347 350 343 345 343 342 348 352 351 352 354 352 350 349 349 348 346 345 342 342 341 338 333 336 336 334 330 321 320 329 331 333 331
318 320 324 328 331 335 334 336 342 345 345 348 346 342 347 347 356 352 354 351 352 352 349 349 350 348 347 348 345 344 340 339 335 333 332 330 331 330 324 319 323 329 331
318 319 323 327 327 329 331 333 334 342 344 348 347 348 348 348 347 349 349 349 349 346 347 347 348 349 348 347 345 344 342 340 337 337 333 330 326 325 325 322 322 323 326
317 319 321 321 324 327 329 332 340 336 344 345 348 347 355 349 359 350 348 347 343 343 345 346 349 349 349 346 346 343 341 338 337 336 332 332 330 330 328 324 322 321 326
317 318 321 324 321 324 327 327 331 339 342 343 348 350 354 351 356 351 350 346 345 345 348 349 350 348 347 345 344 342 339 340 336 335 334 332 331 333 330 326 323 319 321
318 318 320 325 328 331 337 336 333 336 341 348 351 350 352 354 352 353 357 349 349 349 350 349 347 346 344 343 342 340 338 338 337 335 334 333 333 333 332 331 328 323 317
316 319 322 329 335 338 340 341 336 337 348 350 350 351 353 355 355 354 351 351 348 347 347 346 345 341 342 341 340 339 338 336 336 334 333 332 332 333 332 331 330 328 323
314 317 323 331 334 336 335 339 335 346 348 350 352 352 353 351 350 350 348 348 348 345 343 343 341 337 337 338 338 337 335 335 333 333 332 332 334 333 332 332 329 328 327
313 315 330 332 331 332 333 337 343 345 348 350 350 350 349 348 347 346 347 346 345 343 341 341 337 336 337 338 336 335 335 332 331 332 332 329 334 331 332 330 327 328 328
312 314 328 328 333 333 336 341 344 345 347 347 346 346 345 344 345 344 344 343 343 341 339 339 334 335 335 334 336 335 332 334 332 332 330 330 331 327 329 330 328 329 329
311 313 318 328 335 336 339 341 342 344 345 344 342 341 342 343 343 342 342 342 340 339 339 338 335 333 335 334 334 333 333 333 330 330 328 326 324 325 326 328 328 329 326
309 312 316 329 335 336 337 340 340 342 342 340 340 341 342 342 341 339 339 339 340 338 336 335 333 335 332 331 333 332 333 332 329 329 328 326 325 321 319 325 326 327 326
308 310 315 329 334 334 333 339 339 339 340 337 337 340 338 337 337 338 339 340 338 338 334 334 332 329 326 307 312 329 334 333 329 326 325 324 321 319 314 316 317 322 326
308 310 315 321 333 332 334 334 335 336 338 337 336 335 335 335 336 338 337 337 339 336 335 337 336 332 325 304 307 312 334 331 331 327 323 323 326 322 326 314 315 315 316
309 311 316 333 334 334 335 335 334 334 335 333 331 333 334 334 335 335 336 337 337 337 338 336 335 334 319 304 305 309 335 333 331 325 325 323 326 326 327 327 326 326 326
313 313 319 333 336 334 335 334 332 334 331 330 330 332 335 334 334 333 335 338 336 336 335 335 333 331 323 305 304 313 333 330 326 326 324 325 327 308 308 327 325 323 318
316 316 321 329 337 335 336 334 332 331 329 329 330 332 334 334 331 333 337 337 337 336 337 334 334 322 324 304 304 314 331 326 323 323 319 307 320 301 304 328 326 319 318
316 319 320 328 333 336 335 333 330 329 330 331 331 334 335 333 336 336 338 336 335 335 334 332 331 333 328 316 304 304 330 324 322 323 321 321 300 300 302 309 326 319 320
314 316 320 325 336 335 335 333 331 332 331 331 332 335 334 332 335 336 335 336 335 333 332 330 330 331 329 312 304 304 309 315 324 323 325 315 298 298 303 313 302 305 313
315 317 321 330 335 335 334 332 333 331 331 332 333 334 335 333 334 335 335 332 333 330 330 328 327 326 327 322 301 301 304 307 319 316 301 297 296 297 303 299 303 305 321
314 319 320 331 331 334 335 334 332 331 330 333 333 334 333 332 334 335 335 331 332 329 329 326 325 325 327 326 325 317 313 306 312 309 309 304 305 306 306 309 316 324 322
316 322 325 333 332 332 333 335 331 331 332 334 333 333 332 331 334 325 325 333 319 320 327 331 325 323 322 324 319 320 325 324 313 314 317 315 314 317 319 320 322 322 320
316 321 326 332 331 335 334 331 330 333 333 331 332 331 330 333 331 328 321 296 298 296 296 303 320 313 305 300 300 299 299 300 300 318 315 313 314 315 317 319 320 321 317

GFSMW_sfc_thetae_063.txt.gz
Theta_e
316 318 319 322 323 332 331 330 333 338 334 336 336 335 334 333 338 340 343 342 348 348 345 342 341 339 338 335 334 333 330 328 328 328 326 327 331 331 332 331 332 333 333
314 316 318 319 323 331 330 329 330 333 334 337 335 333 332 333 335 339 341 344 346 347 344 341 340 340 338 336 335 334 329 327 329 325 322 318 321 326 329 330 329 328 331
313 315 317 318 321 331 332 333 333 334 332 336 337 335 336 338 339 338 339 345 346 346 346 343 340 340 340 336 335 333 328 325 328 328 323 319 313 317 323 326 328 327 327
314 314 315 317 327 330 331 332 334 333 335 336 336 334 333 331 333 338 342 344 346 345 345 343 342 341 339 337 336 335 330 330 326 331 330 325 322 315 313 321 325 326 327
312 314 315 316 327 328 329 330 333 333 335 339 338 334 333 335 334 340 341 341 343 344 345 342 341 341 338 338 336 334 333 331 327 325 324 322 322 321 317 314 317 323 325
311 314 314 315 321 325 327 327 328 330 331 334 337 333 331 334 337 338 341 341 341 341 343 344 341 344 341 338 337 336 332 331 329 328 325 322 319 318 318 316 316 316 320
307 312 311 312 316 317 320 324 325 328 333 334 337 337 332 334 336 339 342 341 338 337 339 342 342 343 339 339 339 334 332 331 328 327 325 324 322 323 321 319 315 315 319
307 311 312 311 312 316 317 320 322 321 331 333 337 337 336 340 339 343 342 341 340 339 340 342 342 341 342 337 335 333 331 331 329 327 326 323 324 325 322 318 316 313 314
309 310 310 311 311 312 315 315 316 326 330 335 335 340 339 342 343 342 343 341 339 340 341 341 341 341 337 335 333 331 330 330 327 326 326 324 324 325 325 323 321 316 311
310 309 312 316 321 324 325 326 321 329 331 334 339 341 341 344 346 346 342 341 341 342 341 341 338 335 335 333 331 329 330 328 327 327 326 325 325 326 325 323 322 320 317
309 307 312 322 324 326 325 326 324 327 336 340 340 341 342 345 345 343 342 342 342 342 341 338 334 333 333 331 329 327 329 327 326 327 326 325 325 325 324 323 323 322 320
305 313 323 325 325 325 325 326 324 338 341 342 343 343 342 342 340 338 337 339 339 339 336 335 332 334 334 333 328 328 328 327 325 325 325 325 329 323 324 321 322 322 322
305 306 322 321 323 323 324 326 337 340 342 344 342 341 342 340 337 334 334 335 333 332 333 331 330 332 333 328 328 329 327 327 326 325 324 323 324 323 325 324 321 322 326
304 303 310 321 324 328 328 337 338 341 342 340 339 338 338 338 335 334 332 333 331 330 330 329 331 331 330 328 329 329 328 327 325 325 323 321 322 321 324 325 322 324 322
304 305 306 321 325 328 332 336 338 339 340 339 338 337 337 335 334 332 331 330 330 330 329 328 327 329 330 330 331 330 327 323 322 322 321 321 322 319 319 325 323 323 320
305 304 307 312 327 328 329 334 336 337 338 336 336 337 335 333 331 330 329 329 328 328 326 326 327 324 324 309 315 327 325 324 322 320 319 321 320 318 315 316 317 321 320
309 306 307 319 324 328 328 333 334 336 336 335 336 335 332 331 329 330 330 328 327 329 328 326 324 321 315 304 308 317 326 324 322 320 320 322 324 321 321 312 315 315 315
308 309 306 315 325 330 328 334 335 334 335 334 333 331 331 330 329 329 327 330 325 328 328 328 323 318 313 303 305 309 325 324 324 322 322 321 322 321 322 320 322 322 319
307 309 312 319 326 330 331 331 332 332 331 328 328 330 331 329 327 327 328 327 325 324 324 326 322 317 312 304 305 314 324 323 323 323 322 322 323 310 306 322 317 314 312
307 308 312 314 329 327 329 329 329 328 326 326 327 331 331 329 326 326 327 326 326 326 327 326 324 315 313 304 304 316 324 320 320 318 318 306 314 301 308 321 316 314 313
306 309 311 312 320 329 322 328 327 325 325 327 327 331 331 330 330 330 328 326 326 325 324 324 323 320 314 309 303 305 321 319 319 317 318 312 299 300 304 309 319 314 315
306 308 309 311 317 327 330 328 329 323 326 326 330 331 330 332 332 329 326 326 325 323 322 322 322 321 316 306 301 304 312 315 320 318 317 309 297 299 300 311 300 303 310
305 307 308 310 314 326 331 329 330 324 328 329 328 328 328 330 328 327 326 326 324 324 321 321 322 321 318 313 300 300 306 308 314 313 308 297 297 298 302 300 301 306 317
304 307 309 311 318 329 332 332 333 328 330 327 327 328 328 327 329 328 326 326 323 324 322 321 322 322 317 315 311 309 308 304 308 303 306 305 306 305 307 308 312 319 316
305 308 310 318 323 330 332 334 333 330 328 327 327 327 327 326 315 310 310 320 311 316 323 321 323 323 321 320 313 313 317 314 309 312 315 317 317 317 317 320 320 319 318
305 308 312 321 324 331 330 333 331 330 328 327 326 326 327 323 319 315 312 296 295 295 303 308 315 313 307 302 301 300 300 299 300 315 315 314 316 317 317 318 317 317 315

GFSMW_sfc_thetae_069.txt.gz
Theta_e
304 305 306 310 314 318 320 323 327 330 339 338 336 337 337 339 337 338 339 339 339 338 335 334 331 331 327 329 329 327 326 325 325 323 322 323 326 328 331 327 328 328 331
300 303 305 306 308 311 320 321 326 332 335 337 337 335 338 333 338 338 338 339 339 340 337 335 334 333 331 327 328 328 324 324 325 321 319 315 320 320 324 324 326 326 328
298 300 302 302 303 307 311 320 324 332 338 339 333 328 330 331 330 329 331 335 338 341 340 335 335 335 335 331 329 329 327 323 323 327 325 318 317 313 318 320 322 323 323
297 299 300 301 302 304 309 316 321 329 338 340 334 331 332 332 331 330 330 331 337 342 341 339 337 336 336 333 332 331 327 325 327 327 328 325 322 314 312 317 319 321 322
302 303 305 304 303 303 305 312 321 325 333 339 337 334 326 328 326 330 330 332 336 342 342 340 338 337 336 334 333 330 327 326 324 324 321 320 319 317 314 312 314 318 320
302 303 305 306 307 306 304 307 317 323 328 335 334 333 332 326 326 329 330 333 336 340 341 340 338 337 336 334 334 334 331 327 325 323 321 320 318 316 315 312 313 312 315
300 301 301 303 306 307 307 309 316 322 325 330 332 333 330 328 327 329 330 333 334 335 338 338 337 337 336 335 337 334 330 330 326 324 322 320 319 318 317 315 312 311 314
299 300 301 303 306 308 309 305 309 320 324 327 329 331 329 326 327 330 332 334 336 337 338 338 338 337 337 336 337 332 330 328 326 324 323 322 320 320 319 317 313 309 310
300 301 302 305 307 308 310 310 307 318 323 326 328 327 326 324 327 330 334 335 336 338 338 338 338 337 337 336 335 330 328 326 325 324 323 320 320 320 320 317 316 313 308
300 301 303 305 308 309 310 314 312 315 322 324 325 325 327 327 327 333 335 336 335 337 337 337 336 336 335 336 334 331 327 326 323 323 322 320 320 320 320 319 317 315 312
300 302 304 306 308 309 309 314 311 317 320 318 322 324 327 329 331 334 336 336 336 337 338 337 336 335 334 333 331 329 326 325 323 322 322 322 321 320 320 319 318 316 315
301 303 305 307 308 309 309 316 311 316 318 320 325 327 329 332 333 335 336 336 336 338 338 337 335 335 335 332 329 327 326 325 323 323 322 321 323 320 320 319 318 317 316
302 305 306 307 308 310 310 319 316 315 319 324 326 329 332 334 335 336 335 336 336 337 338 336 334 334 332 328 325 326 325 324 323 323 322 321 320 319 319 319 317 319 320
306 306 307 307 308 311 322 326 321 326 328 330 330 332 335 336 336 336 336 337 337 337 335 335 334 332 330 328 326 326 324 324 323 322 321 320 320 320 319 319 318 318 317
306 305 304 305 307 309 319 323 325 330 333 334 333 333 335 334 335 336 336 335 336 335 335 332 330 328 327 328 326 324 323 322 321 320 320 319 319 320 318 319 319 319 318
303 303 303 304 306 309 318 321 326 333 335 334 333 333 333 333 332 332 332 332 332 331 330 328 327 324 325 309 312 321 322 323 323 317 316 316 317 316 315 314 316 320 319
301 301 302 304 305 310 320 321 322 334 334 333 333 332 333 332 331 331 331 329 327 326 324 323 323 322 320 305 308 313 324 321 318 316 315 317 321 319 320 311 311 312 312
300 301 303 303 305 315 319 322 325 330 332 332 331 331 331 330 330 328 326 322 323 323 321 320 321 318 313 302 304 307 320 318 317 315 318 319 320 320 320 318 321 321 320
301 301 302 304 304 312 318 321 323 323 331 331 330 331 331 328 327 325 323 321 321 320 319 319 316 314 312 300 301 314 319 318 317 317 318 319 320 308 305 321 320 317 314
302 301 302 304 303 306 316 318 321 322 321 330 330 330 330 328 325 324 322 320 323 321 321 319 318 310 311 300 301 315 324 321 320 318 315 303 314 300 301 319 318 315 313
301 302 302 301 303 307 315 317 320 321 322 331 331 330 328 326 325 323 323 321 321 320 318 315 313 312 311 308 301 304 322 320 318 316 313 313 299 298 298 306 317 313 313
301 301 301 302 305 307 317 319 318 321 323 325 328 325 324 326 325 322 324 324 322 320 316 314 312 314 314 304 301 301 306 308 315 313 314 311 296 295 298 307 297 300 309
300 302 302 303 304 308 317 319 319 322 322 326 325 324 324 324 324 322 321 321 321 320 319 317 315 315 315 310 299 298 298 302 314 314 309 297 296 295 299 298 299 303 315
299 301 302 302 303 309 318 321 324 322 324 325 325 324 323 322 324 324 323 321 320 320 320 319 315 316 315 314 311 308 307 302 306 303 305 304 303 303 303 305 310 314 313
299 300 302 302 305 309 318 322 323 326 324 325 324 323 323 323 317 309 314 321 319 319 321 320 319 316 316 316 309 311 314 314 308 309 311 314 313 311 312 315 315 314 311
299 300 302 304 306 312 316 320 321 324 327 325 324 324 321 319 315 313 308 295 295 297 300 304 314 315 306 298 297 298 298 297 299 314 315 314 314 313 314 315 313 313 311

GFSMW_sfc_thetae_072.txt.gz
Theta_e
303 306 305 306 306 312 313 315 324 331 335 333 332 333 333 335 336 337 338 337 337 336 334 333 331 330 329 329 329 329 329 328 329 329 329 329 331 332 334 335 334 334 335
301 303 303 304 303 304 308 312 315 321 332 337 337 336 336 337 338 339 339 339 338 338 335 334 332 332 330 329 329 330 327 329 329 327 324 323 327 328 328 331 331 332 333
299 300 303 303 302 302 303 309 312 315 323 335 333 331 332 332 332 334 337 339 340 340 338 336 335 333 333 329 330 330 329 327 327 330 328 322 321 323 326 327 328 330 330
301 304 305 306 306 305 304 303 310 314 318 327 333 333 334 333 335 334 337 336 339 340 340 337 336 336 335 333 331 331 331 331 327 329 330 328 326 322 320 325 325 326 328
301 302 304 305 307 307 306 304 304 313 317 322 334 334 333 335 333 330 332 333 334 338 340 338 337 336 336 336 335 332 332 332 330 330 326 326 325 323 322 321 323 325 326
301 301 303 304 304 306 307 308 306 304 316 321 330 334 334 332 327 329 330 331 334 337 340 340 339 339 338 336 335 335 334 332 331 328 329 329 325 323 322 320 321 320 324
299 299 300 301 303 304 306 308 309 308 310 319 325 334 335 335 329 331 329 331 333 335 339 339 339 338 339 338 337 336 334 332 330 329 328 328 327 325 325 323 320 320 321
297 299 301 302 303 305 306 308 309 309 309 312 321 328 334 335 331 330 330 331 334 337 340 340 340 340 339 338 338 336 336 332 332 329 329 328 326 326 326 324 322 317 318
298 300 302 303 304 305 306 308 309 310 311 309 318 324 329 332 331 329 332 333 336 337 339 340 339 339 339 339 338 336 333 333 330 330 329 328 326 326 326 324 324 323 316
299 299 301 303 305 306 307 309 310 309 310 314 315 323 327 330 328 329 332 333 336 338 338 339 339 338 339 338 337 335 332 331 329 329 327 326 326 326 326 324 323 322 321
298 300 301 307 306 307 308 309 311 311 311 316 315 322 325 327 327 329 332 335 336 338 338 339 338 338 336 336 335 334 331 329 328 328 327 326 326 326 326 325 324 323 322
300 301 303 308 307 308 309 309 312 314 313 314 316 322 325 327 328 330 333 335 336 339 339 339 338 336 335 335 334 331 331 328 327 326 327 326 326 326 326 325 324 324 323
301 303 306 305 303 304 306 308 313 322 319 316 320 322 326 328 329 331 334 336 337 338 339 338 337 335 335 334 333 331 329 329 328 327 326 326 326 325 325 325 324 324 323
304 304 303 303 303 303 306 309 314 323 320 318 321 325 327 330 331 333 334 336 337 337 338 337 337 336 335 333 329 329 328 328 328 327 327 326 325 325 325 325 325 324 323
303 304 302 303 302 303 306 307 317 324 322 321 323 326 330 332 334 334 335 336 337 338 337 336 335 334 333 330 328 328 329 327 326 325 325 325 324 321 322 325 325 323 322
301 302 303 303 303 304 304 307 318 323 331 328 326 331 333 334 335 336 336 336 336 336 335 334 333 331 331 310 313 323 327 326 325 323 323 323 319 316 312 312 315 322 322
299 300 301 303 304 304 305 306 319 326 332 331 332 333 334 333 334 335 335 334 334 333 332 331 331 328 326 306 308 312 327 326 326 323 321 321 322 320 321 311 311 313 312
300 300 301 301 303 304 307 309 318 323 331 332 332 333 333 332 333 334 333 333 330 330 330 329 328 325 318 304 303 308 326 324 323 322 321 322 323 322 322 319 321 323 320
301 301 302 302 303 303 306 308 317 321 328 331 331 332 332 331 332 331 328 328 327 327 326 325 322 321 315 299 300 316 324 322 321 321 321 322 322 308 304 320 321 319 316
301 301 302 302 302 304 305 307 316 320 321 330 331 331 330 330 329 327 326 326 327 324 323 320 321 312 313 298 301 315 323 321 320 320 318 305 315 300 301 323 320 317 315
301 303 302 301 302 304 305 310 319 319 322 328 331 330 329 327 326 325 325 324 323 321 319 317 317 317 313 308 301 305 325 322 321 320 319 317 300 298 299 307 321 316 315
300 301 300 300 302 304 306 311 316 322 324 324 326 329 327 326 326 324 324 322 320 317 316 315 313 315 315 305 301 301 306 313 322 319 319 311 297 296 297 307 297 300 309
299 300 299 299 301 305 307 312 318 322 323 324 327 325 326 326 325 324 322 321 320 317 316 315 313 314 315 311 299 298 297 302 318 319 310 297 295 295 299 297 299 303 317
300 301 299 298 299 305 307 315 322 322 321 319 321 325 323 323 324 324 323 322 320 320 318 317 315 316 316 315 311 308 308 303 307 303 306 304 303 303 302 305 310 316 317
301 301 299 299 300 305 307 317 322 322 321 319 324 323 323 322 314 306 314 323 321 320 321 319 318 316 316 317 309 310 315 316 309 309 313 314 312 311 313 315 315 315 317
299 298 299 300 301 305 311 315 322 320 320 323 322 322 321 318 315 314 309 294 297 299 302 304 314 317 306 299 298 299 299 297 299 314 315 314 313 312 314 314 314 314 312

GFSMW_sfc_thetae_075.txt.gz
Theta_e
309 309 310 312 314 318 320 322 321 328 340 343 342 340 338 338 338 340 341 341 340 340 341 337 342 343 340 342 342 341 340 338 339 336 336 339 343 344 343 344 345 345 346
304 305 309 313 315 317 322 323 325 326 332 340 343 344 344 343 342 343 345 344 342 339 341 343 344 343 342 343 342 341 338 339 339 335 336 331 335 338 341 342 343 344 343
302 305 309 313 315 315 317 320 322 324 329 335 339 346 346 345 343 343 344 345 345 341 343 344 346 346 344 342 343 342 341 337 337 340 337 330 328 332 337 338 339 342 341
304 308 309 310 311 313 315 317 321 323 322 327 332 341 336 337 342 345 346 347 346 345 346 348 349 348 345 346 344 343 342 341 335 336 339 339 337 329 328 334 337 339 337
307 308 307 308 309 311 312 315 319 322 323 324 328 327 338 338 343 344 351 352 350 349 348 350 349 348 347 347 346 343 341 339 339 338 337 335 333 331 330 325 330 335 336
308 308 309 309 309 311 312 314 317 319 322 322 324 331 336 340 337 342 341 341 344 348 351 351 349 349 349 347 346 344 341 341 342 340 338 335 330 332 332 330 333 332 334
307 306 308 308 309 310 312 313 315 317 320 321 322 325 333 340 343 344 340 342 341 344 350 351 349 347 348 348 347 345 343 343 342 343 336 340 339 339 337 334 332 328 333
306 307 308 309 310 312 313 313 313 314 318 319 320 322 329 328 336 343 341 340 342 346 352 350 349 349 347 347 347 345 345 346 344 340 343 340 339 338 337 334 331 326 328
306 307 308 309 310 315 315 315 315 316 317 319 321 321 323 330 333 341 340 338 346 346 348 349 348 348 347 348 349 346 347 346 344 342 343 340 338 338 338 337 334 328 322
305 307 308 309 312 314 314 314 315 316 318 319 320 321 324 325 330 338 339 338 344 347 346 347 348 348 349 350 350 348 348 345 339 338 341 340 339 339 337 335 334 332 328
305 307 308 310 311 311 311 313 312 314 316 320 322 323 326 328 333 337 340 341 346 347 345 347 348 348 349 350 349 348 346 342 337 341 340 339 340 336 335 335 334 332 330
306 307 308 310 310 309 310 311 311 312 317 320 324 326 327 329 334 337 340 343 345 345 345 347 347 348 349 349 347 346 343 336 335 336 339 337 335 337 337 335 335 333 333
305 307 309 309 308 308 307 309 310 311 313 314 323 330 327 328 334 338 341 343 343 344 345 346 347 347 347 347 347 345 342 336 335 338 338 336 337 336 334 334 334 334 333
305 306 306 305 306 307 307 307 309 311 312 311 320 329 330 330 335 338 341 343 344 344 345 346 346 347 346 345 345 342 337 336 337 338 338 336 336 336 335 335 335 335 332
303 304 304 305 305 306 308 310 309 310 311 309 314 330 331 333 335 337 340 344 344 344 345 345 347 347 346 342 342 340 337 338 337 338 337 338 333 326 329 334 335 334 331
303 304 305 305 305 305 307 308 308 309 310 309 311 327 328 330 335 339 341 343 343 344 345 345 345 345 342 312 316 330 338 337 336 335 335 335 323 321 313 312 314 327 332
303 303 304 305 306 307 307 307 308 310 309 308 311 326 328 331 336 338 340 341 341 343 344 345 344 344 342 308 310 315 338 337 337 336 334 332 331 326 330 313 311 312 313
303 304 305 305 305 306 306 305 306 306 308 309 316 328 330 333 337 338 337 338 338 341 341 342 344 343 337 308 306 311 338 337 337 336 335 334 332 330 328 328 327 329 325
305 305 306 306 305 305 306 305 305 307 308 324 329 330 334 335 334 334 334 335 337 338 340 340 335 333 326 303 302 319 336 335 334 333 333 332 331 308 305 327 327 325 320
307 306 306 305 305 305 305 305 307 312 321 330 330 334 335 334 334 334 334 336 338 336 332 332 334 323 326 298 303 320 333 332 330 331 328 307 321 300 301 329 326 322 318
306 307 306 304 305 306 306 306 307 313 322 325 332 336 338 337 334 333 335 335 331 328 329 328 332 330 325 312 300 305 334 332 330 328 327 326 302 298 298 306 326 322 323
305 306 304 303 306 306 306 305 306 314 324 324 331 333 335 334 333 334 333 329 328 325 328 325 321 320 321 308 300 303 311 316 331 327 329 321 297 296 298 309 298 300 311
304 305 303 304 305 306 307 305 307 312 323 328 328 330 332 331 332 331 333 330 328 329 325 323 319 319 320 316 298 299 301 309 327 329 314 298 295 295 301 297 299 304 323
301 303 303 303 304 307 305 306 309 319 322 322 326 327 327 327 330 330 331 329 328 327 325 323 321 320 319 319 318 315 313 304 313 306 312 307 305 302 307 308 313 323 323
300 302 302 304 304 305 305 307 311 319 322 321 324 324 325 324 318 315 325 329 330 325 325 325 324 321 320 320 314 317 323 325 315 315 317 316 316 314 315 318 320 321 322
298 299 303 304 304 305 306 308 312 318 323 325 323 323 320 319 318 319 314 296 300 300 301 306 319 324 307 299 298 299 298 298 300 319 319 317 316 315 316 317 318 319 316